Weather History for Kalispell, MT

Change the Weather History Date:

Saturday, December 1, 2012

  Actual Average Record
Temperature  
Mean Temperature 40 °F 26 °F  
Max Temperature 48 °F 33 °F 54 °F (1925)
Min Temperature 31 °F 20 °F -18 °F (1985)
Degree Days  
Heating Degree Days 25 39  
Month to date heating degree days 25 39  
Since 1 July heating degree days 2005 2243  
Cooling Degree Days 0 0  
Month to date cooling degree days 0 0  
Year to date cooling degree days 192 147  
Moisture  
Dew Point 34 °F    
Average Humidity 84    
Maximum Humidity 100    
Minimum Humidity 67    
Precipitation  
Precipitation 0.12 in 0.05 in 0.48 in (1964)
Month to date precipitation 0.12 0.05  
Year to date precipitation 19.26 15.48  
Snow  
Snow 0.00 in - - ()
Month to date snowfall 0.0  
Year to date snowfall 27.4  
Since 1 July snowfall 2.3  
Snow Depth 0.00 in    
Sea Level Pressure  
Sea Level Pressure 29.70 in    
Wind  
Wind Speed 5 mph (SSW)    
Max Wind Speed 61 mph    
Max Gust Speed 68 mph    
Visibility 8 miles    
Events Rain    
T = Trace of Precipitation, MM = Missing Value Source: NWS Daily Summary

Daily Weather History Graph

Daily Weather History Graph

Search for Another Location

Airport:

Trip Planner

Search our weather history database for the weather conditions in past years. The results will help you decide how hot, cold, wet, or windy it might be!

Date:

Astronomy

Dec. 01, 2012 Rise Set
Actual Time 8:07 AM MST 4:44 PM MST
Civil Twilight 7:31 AM MST 5:20 PM MST
Nautical Twilight 6:52 AM MST 5:59 PM MST
Astronomical Twilight 6:14 AM MST 6:37 PM MST
Moon 7:42 PM MST (12/1) 10:19 AM MST (12/1)
Length of Visible Light 9h 48m
Length of Day
8h 37m
Waning Gibbous, 91% of the Moon is Illuminated
Dec 1
Waning Gibbous
Dec 6
Last Quarter
Dec 13
New
Dec 19
First Quarter
Dec 28
Full

Hourly Weather History & Observations

Time (MST) Temp. Windchill Dew Point Humidity Pressure Visibility Wind Dir Wind Speed Gust Speed Precip Events Conditions
12:23 AM 33.8 °F 30.8 °F 30.2 °F 87% 29.66 in 1.8 mi NNE 3.5 mph - N/A   Partly Cloudy
12:25 AM 33.8 °F - 30.2 °F 87% 29.66 in 1.0 mi Calm Calm - N/A   Mist
12:27 AM 33.8 °F - 32.0 °F 93% 29.66 in 0.8 mi Calm Calm - N/A   Partly Cloudy
12:44 AM 30.2 °F - 30.2 °F 100% 29.66 in 1.2 mi Calm Calm - N/A   Mostly Cloudy
12:55 AM 32.0 °F 27.5 °F 30.9 °F 96% 29.70 in 2.0 mi NE 4.6 mph - N/A   Scattered Clouds
1:03 AM 32.0 °F - 32.0 °F 100% 29.65 in 4.0 mi Calm Calm - N/A   Mostly Cloudy
1:55 AM 32.0 °F 28.7 °F 30.9 °F 96% 29.69 in 6.0 mi WNW 3.5 mph - N/A   Partly Cloudy
2:55 AM 32.0 °F 27.5 °F 32.0 °F 100% 29.70 in 10.0 mi WSW 4.6 mph - N/A   Mostly Cloudy
3:55 AM 35.1 °F 31.0 °F 34.0 °F 96% 29.69 in 10.0 mi SW 4.6 mph - 0.01 in Rain Light Rain
4:55 AM 35.1 °F - 34.0 °F 96% 29.69 in 10.0 mi Calm Calm - 0.02 in Rain Light Rain
5:55 AM 37.0 °F 31.0 °F 36.0 °F 96% 29.69 in 5.0 mi SSW 8.1 mph - 0.03 in Rain Rain
6:55 AM 37.9 °F 35.5 °F 37.0 °F 97% 29.70 in 10.0 mi West 3.5 mph - 0.02 in   Overcast
7:55 AM 37.0 °F 34.5 °F 37.0 °F 100% 29.71 in 10.0 mi SSW 3.5 mph - N/A   Overcast
8:55 AM 37.0 °F - 36.0 °F 96% 29.70 in 7.0 mi Calm Calm - 0.00 in   Overcast
9:55 AM 37.9 °F - 37.0 °F 97% 29.69 in 10.0 mi Calm Calm - 0.00 in Rain Light Rain
10:55 AM 43.0 °F 38.2 °F 39.9 °F 89% 29.68 in 10.0 mi South 8.1 mph - 0.00 in   Overcast
11:55 AM 45.0 °F 40.1 °F 39.0 °F 80% 29.66 in 10.0 mi South 9.2 mph - N/A   Mostly Cloudy
12:55 PM 44.1 °F 38.1 °F 39.9 °F 85% 29.69 in 10.0 mi SSW 11.5 mph 20.7 mph 0.04 in Rain Light Rain
1:55 PM 46.0 °F 40.6 °F 37.9 °F 73% 29.68 in 10.0 mi South 11.5 mph - 0.00 in   Overcast
2:55 PM 45.0 °F 38.9 °F 34.0 °F 65% 29.70 in 10.0 mi SW 12.7 mph 21.9 mph 0.00 in Rain Light Rain
3:55 PM 46.0 °F 41.0 °F 34.0 °F 63% 29.72 in 10.0 mi South 10.4 mph 16.1 mph 0.00 in Rain Light Rain
4:55 PM 43.0 °F 40.3 °F 30.9 °F 62% 29.74 in 10.0 mi SSW 4.6 mph - 0.00 in   Overcast
5:15 PM 42.8 °F 38.6 °F 32.0 °F 66% 29.70 in 10.0 mi SSW 6.9 mph - N/A   Overcast
5:55 PM 42.1 °F 37.7 °F 32.0 °F 67% 29.74 in 10.0 mi South 6.9 mph - N/A   Overcast
6:55 PM 39.0 °F 34.8 °F 33.1 °F 79% 29.76 in 10.0 mi ESE 5.8 mph - N/A   Overcast
7:55 PM 39.9 °F 37.8 °F 33.1 °F 77% 29.75 in 10.0 mi SE 3.5 mph - N/A   Mostly Cloudy
8:55 PM 37.9 °F 33.5 °F 34.0 °F 86% 29.75 in 10.0 mi South 5.8 mph - N/A   Partly Cloudy
9:55 PM 37.0 °F 34.5 °F 33.1 °F 86% 29.73 in 10.0 mi WSW 3.5 mph - N/A   Partly Cloudy
10:55 PM 36.0 °F - 33.1 °F 89% 29.70 in 10.0 mi Calm Calm - N/A   Overcast
11:55 PM 35.1 °F - 33.1 °F 92% 29.66 in 10.0 mi Calm Calm - N/A   Overcast